Hourly Data Report for September 18, 2020

GIMLI CLIMATE
MANITOBA
Current Station Operator: ECCC - MSC

50°38'00.000" N
97°03'00.000" W
230.10 m
5031042
71748
PGH

Download Data

Hourly Data (September 2020)
Hourly Data Report for September 18, 2020
TIME Temp Definition
°C
Dew Point Definition
°C
Rel Hum Definition
%
Wind Dir Definition
10's deg

Wind Spd Definition
km/h
Visibility Definition
km
Stn Press Definition
kPa
Hmdx Definition


Wind Chill Definition


Weather Definition


00:00 -1.9 -4.7 81 27 3   100.00   -3 LegendNANA
01:00 -3.1 -5.4 84 26 6   100.02   -6 LegendNANA
02:00 -3.3 -5.2 87 27 5   100.03   -5 LegendNANA
03:00 -2.8 -4.9 85 23 2   100.03   -4 LegendNANA
04:00 -4.1 -6.1 86 21 4   100.02   -6 LegendNANA
05:00 -5.7 -7.6 86 26 3   100.01   -7 LegendNANA
06:00 -4.0 -5.5 90 22 4   100.01   -6 LegendNANA
07:00 -2.8 -4.9 85 20 5   100.00   -5 LegendNANA
08:00 2.8 -1.8 72 17 7   99.96     LegendNANA
09:00 5.4 -2.1 59 17 8   99.92     LegendNANA
10:00 6.5 -1.3 57 16 9   99.88     LegendNANA
11:00 6.1 0.8 69 15 10   99.81     LegendNANA
12:00 6.0 2.8 80 15 9   99.78     LegendNANA
13:00 9.1 4.3 72 13 21   99.57     LegendNANA
14:00 10.5 4.5 66 12 24   99.45     LegendNANA
15:00 8.6 5.5 81 12 20   99.29     LegendNANA
16:00 10.9 5.4 69 13 23   99.18     LegendNANA
17:00 10.9 5.8 71 12 19   99.09     LegendNANA
18:00 10.9 6.9 76 10 13   98.99     LegendNANA
19:00 10.9 7.4 79 8 11   98.93     LegendNANA
20:00 11.0 7.8 80 8 8   98.90     LegendNANA
21:00 9.7 6.9 83 35 8   98.89     LegendNANA
22:00 8.0 6.1 88 34 5   98.86     LegendNANA
23:00 6.5 5.2 92 29 10   98.89     LegendNANA

Notes on Data Quality.

Legend

  • E = Estimated
  • M = Missing
  • NA = Not Available*
  • [empty] = Indicates an unobserved value
Date modified: